NOAA 16 DEB, 42394

Orbit data source: Space-Track

NOAA 16 DEB, 42394 is space debris in SSO originally from a launch on Thu, 21 Sep 2000 UTC launched from the Air Force Western Test Range (AFWTR). Debris objects in space refer to the collection of defunct objects orbiting the Earth. Examples of debris include non-operational satellites, rocket bodies, and fragments generated from explosions, collisions, or faulty payload assembly.

Loading next visibility...
Identifier
42394, 2000-055SN
Orbit
SSO
Country
Flag of USUS
Related business
Manufacturer
Unknown
Mission
Spacecraft
Bus & Motor
Unknown
Mass
Unknown
Launch date (UTC)
2000-09-21 (26 years ago)
Launch vehicle
Unknown
Launch site
Air Force Western Test Range (AFWTR)
Object type
Payload
Rocket body
Debris
Shape & HBR
Unknown shape, 0.1 m
Radar Cross Section
Small (<0.1 m²)

Expand to show TLE details & history
Last TLE update: 2 days ago

TLE from 2 days ago
0 NOAA 16 DEB
1 42394U 00055SN  26125.07419340  .00007249  00000-0  15720-2 0  9995
2 42394  98.9719 342.9816 0031231 218.6016 141.2948 14.58165086529328
Epoch: 2026-05-05T01:46Z
TLE epoch observation values (Epoch: 2026-05-05T01:46:50.309Z)
Latitude
-0.00002°
Longitude
93.31772°
Altitude
719.342 km
Speed
7.487 km/s
True Right ascension
22h 51m 55s
True Declination
0° 00' 00"
Sunlit
Object was in daylight at epoch
Visualization orbit readout
Latitude
Unknown
Longitude
Unknown
Altitude
Unknown
Speed
Unknown
Apparent Right ascension
Unknown
Apparent Declination
Unknown
Sunlit
N/A
Visualization observer readout
Local Sidereal Time
12:53:44
Azimuth
Unknown
Elevation
Unknown
Doppler factor
Unknown
Orbital elements
Apogee altitude
718.32 km
Perigee altitude
674.132 km
Semi-major axis
7,074.363 km
Eccentricity
0.00312
Inclination
98.9719°
RAAN
342.9816°
Arg. of periapsis
218.6016°
True anomaly
141.51791°
Mean anomaly
141.2948°
Eccentric anomaly
141.40642°
Mean motion
3.64764 °/min
Orbital period
98.69 mins
BSTAR
0.001572
Loading maneuver chart data...
Computing Atmospheric mass density...
Loading historical data...
Loading historical data...
Loading historical data...
Loading historical data...
Loading historical data...
Loading historical data...
Loading historical data...

Documentation

Showing up to 5 results
|